sat.trackr.live / text

‹ back to catalog

STARLINK-31739

NORAD 59766 · 2024-091P

PAYLOAD ACTIVE UNKNOWN

§ Identity

Operator
Country
US
Launch date
2024-05-14
Launch site
AFWTR
Launch vehicle
Mass (kg)
RCS (m²)

Purposes: comms

External: N2YO · Heavens-Above · Gunter

§ Orbital elements

Epoch: 2026-09-21T12:42:53.781696Z

Period
93.85 min
Inclination
53.1557°
Eccentricity
0.0001504
Mean motion
15.34381797 rev/d
Perigee alt
461.7 km
Apogee alt
463.8 km
Semi-major
6,840.9 km
B*
-9.6344e-6
RAAN
192.6101°
Arg perigee
81.8227°
Mean anomaly
278.2946°
Rev number
13,305

§ Raw data

STARLINK-317391 59766U 24091P   26264.52978914 -.00000702  00000+0 -96344-5 0  99952 59766  53.1557 192.6101 0001504  81.8227 278.2946 15.34381797133057

JSON: /api/v1/satellites/59766 · /tle

For live sub-satellite position, see the globe view (requires WebGL).

§ Visibility from observer

Set your observer location to see the next 7 days of passes ≥ 10°. The values pass through the URL so the page stays shareable.

No JS? Fill the form by hand. The geolocation button needs JavaScript.